Wind_Speed
11 11 10 9 9 8 8 8 7 7 5 5 5 6 5 5 5 5 5 6 6 5 6 6 6 6 6 7 7 7 7 7 7 7 7 7 7 7 7 7 7 7 7
9 9 9 8 8 7 7 7 7 6 5 5 5 6 5 5 5 5 5 5 6 6 6 6 7 7 7 7 7 8 8 8 7 7 7 8 8 8 8 8 8 8 8
9 8 8 7 7 7 7 7 7 5 5 5 6 6 6 6 5 5 5 5 5 6 6 6 6 6 7 7 7 7 8 8 8 8 8 8 8 9 9 9 9 10 10
8 8 8 8 7 7 6 6 6 5 5 5 5 6 6 6 6 5 5 5 5 5 6 6 7 7 8 8 8 9 9 9 9 9 9 9 9 9 9 10 10 11 11
8 7 8 7 6 6 5 5 6 5 5 5 6 6 6 6 6 6 6 6 6 7 7 8 8 9 9 9 10 10 10 10 10 11 11 10 10 10 11 11 11 11 11
6 6 6 6 5 5 5 5 5 5 5 5 6 6 6 5 6 6 7 7 7 8 8 9 9 9 10 10 10 11 11 12 12 11 12 11 11 12 12 12 12 12 12
5 5 5 5 4 4 4 4 5 5 5 5 5 6 6 6 6 6 7 7 8 9 9 9 10 10 11 11 11 12 13 13 13 13 13 13 12 13 13 13 14 14 13
5 5 5 5 5 5 5 5 5 5 5 5 5 6 7 7 7 8 8 8 9 10 10 11 11 11 11 12 12 13 13 14 14 14 14 14 14 14 13 14 14 15 14
5 6 6 6 6 6 6 6 6 6 6 6 7 7 8 8 9 9 9 9 10 10 11 11 12 12 12 12 12 13 13 13 14 15 15 15 15 15 14 15 16 15 15
6 6 7 7 7 7 7 7 8 8 8 8 9 9 9 10 10 10 11 11 12 11 11 12 12 12 12 12 12 13 14 14 15 15 15 16 16 17 17 17 18 17 16
7 7 7 7 8 8 8 9 10 10 10 10 10 11 11 11 12 12 12 13 13 13 13 14 14 14 13 13 13 14 14 15 15 16 17 17 17 18 18 18 18 18 18
8 8 9 9 9 10 10 10 11 11 12 12 12 13 13 13 13 14 14 14 15 15 15 15 16 16 15 15 15 15 15 15 15 16 17 18 19 19 19 19 19 18 19
10 10 11 11 12 12 12 12 13 13 13 14 14 15 15 15 15 16 16 16 16 17 17 17 17 17 17 17 16 16 16 17 17 17 17 18 18 19 19 19 19 19 19
12 12 13 13 13 14 14 14 15 15 16 16 16 16 17 17 17 17 17 18 18 18 18 18 18 18 18 18 18 18 18 18 18 18 18 18 19 20 20 21 20 21 21
13 14 14 15 16 16 17 18 18 18 18 18 18 18 18 18 18 19 19 19 19 19 19 19 19 19 20 20 20 20 19 19 19 19 19 20 20 21 21 22 22 22 22
15 15 16 17 17 18 19 19 19 20 20 20 20 21 21 20 20 20 20 20 20 21 21 21 21 21 21 22 22 21 21 20 21 21 22 22 22 23 23 23 23 23 23
17 18 18 18 19 20 20 20 20 21 22 22 21 22 22 21 22 22 21 21 21 21 22 22 23 23 23 23 23 24 23 23 23 24 24 24 24 24 24 24 24 24 24
19 20 20 20 20 21 21 21 21 21 21 22 22 23 23 23 23 23 23 23 23 23 24 24 25 25 25 25 25 25 25 25 25 25 26 26 26 26 26 25 25 25 26
22 22 22 23 22 22 23 23 23 23 23 23 23 23 23 24 24 25 25 25 26 26 26 26 26 27 27 27 27 27 27 27 27 27 27 27 27 27 27 26 26 27 27
24 24 25 25 25 25 25 26 25 25 25 25 24 25 25 26 27 27 27 27 28 28 28 28 28 29 29 29 29 29 29 29 29 29 29 28 28 28 28 28 28 28 29
27 27 27 28 28 27 27 28 29 29 28 27 27 27 27 28 29 29 30 30 30 30 30 30 31 31 31 31 31 32 32 32 32 32 32 31 31 31 30 30 30 30 31
30 31 31 31 30 30 30 29 30 31 32 31 30 30 30 30 31 32 32 33 33 33 33 33 33 33 33 33 33 34 34 34 33 33 34 34 33 33 33 32 32 32 32
32 32 33 33 33 33 32 32 33 33 33 32 32 33 33 34 34 34 35 35 36 36 35 34 34 34 34 35 36 35 35 35 34 34 34 34 34 35 35 35 34 34 33
33 34 35 35 35 35 35 34 34 34 34 34 34 34 35 36 36 37 37 37 38 37 37 37 36 37 37 36 37 37 36 37 37 36 35 35 35 35 36 35 34 34 33
34 34 35 35 35 36 36 35 34 35 35 35 35 35 36 36 37 38 39 39 39 39 39 38 38 39 39 39 38 38 38 39 39 37 36 36 36 36 36 35 35 34 34
34 35 35 36 36 35 35 35 35 35 36 36 36 36 37 38 39 39 40 41 41 39 39 39 39 40 40 40 40 39 39 40 39 38 37 37 37 36 36 35 35 35 35
Wind_Direction
173 173 175 176 182 189 196 200 209 202 206 208 205 202 199 200 206 220 233 238 242 249 250 250 249 254 259 261 266 265 261 265 269 265 263 260 261 263 267 269 270 274 274
171 175 180 185 190 197 202 205 208 205 206 206 203 204 207 216 222 233 245 249 249 254 254 253 255 257 260 263 269 265 264 268 272 271 267 264 263 264 267 272 274 278 276
177 182 188 195 196 198 203 205 207 209 204 207 210 214 214 223 236 240 249 254 258 256 258 262 267 270 269 270 273 270 269 271 269 269 271 272 267 267 268 270 272 275 275
181 188 193 193 193 198 205 210 208 206 208 216 221 227 233 237 242 250 255 262 266 265 264 269 274 275 274 274 274 272 271 272 268 268 270 273 272 273 272 274 274 274 273
179 183 184 186 192 199 208 212 211 215 219 226 225 232 241 245 252 259 265 272 270 269 268 271 271 272 273 277 276 277 276 278 277 274 273 275 275 272 273 275 275 274 274
181 182 182 182 189 202 212 217 217 221 227 228 228 231 238 249 260 267 270 271 272 272 272 276 276 274 275 279 279 280 278 277 278 278 277 279 277 271 269 272 273 272 272
190 197 199 198 203 212 215 220 225 227 235 235 238 241 249 258 267 274 278 276 272 273 273 278 280 279 275 275 278 279 278 277 277 277 276 275 277 276 273 273 273 274 272
204 208 214 218 224 231 233 235 235 238 243 247 257 258 263 268 275 278 279 277 275 274 273 275 280 280 279 276 279 281 280 278 277 276 275 274 275 276 276 275 274 274 275
226 226 228 235 239 241 242 245 244 250 256 260 263 265 265 268 277 284 285 284 283 282 279 279 281 280 279 279 281 281 281 280 279 279 276 273 273 273 275 277 275 274 277
243 245 245 248 248 249 253 257 260 261 265 266 269 269 268 267 272 280 284 284 285 286 283 280 282 282 281 283 280 280 280 280 280 278 276 275 275 273 273 274 275 275 276
251 255 258 255 253 256 260 263 266 267 272 270 271 273 274 273 275 281 283 283 284 287 284 281 281 283 283 282 281 281 282 282 280 278 276 275 275 275 275 276 277 277 277
254 258 262 259 258 260 264 267 266 268 271 273 272 274 274 275 279 282 283 283 284 286 284 284 281 281 281 280 281 282 282 282 282 279 277 275 274 274 276 278 279 278 276
261 263 263 262 259 260 263 267 268 269 274 275 275 273 271 273 277 279 278 279 281 284 283 284 283 282 281 282 282 282 282 281 282 280 279 277 276 275 277 280 279 278 277
263 263 263 263 262 260 262 267 270 271 276 277 275 274 272 271 274 276 277 277 278 281 283 283 282 282 282 282 283 282 281 280 280 281 280 278 278 279 279 278 278 279 277
265 265 265 265 265 267 268 268 270 271 274 275 275 275 274 274 275 276 277 277 278 279 281 283 282 280 281 282 284 282 280 279 279 280 280 280 279 279 279 278 278 279 277
265 266 267 267 268 270 271 271 271 269 272 274 273 273 274 275 275 275 275 277 277 278 278 280 280 281 281 281 281 280 279 278 278 278 277 277 278 278 277 278 278 277 277
266 266 267 267 269 269 270 272 273 272 271 271 273 272 271 272 274 275 274 276 279 280 280 279 279 279 281 280 280 279 278 277 277 277 278 277 276 277 277 278 278 277 278
265 265 266 268 267 269 270 272 273 273 273 274 275 274 272 272 273 274 275 276 278 279 280 279 280 280 280 280 281 279 278 278 279 279 280 280 280 278 276 276 276 277 278
265 264 266 266 268 269 271 273 273 274 275 276 275 274 272 271 272 274 275 277 278 279 279 279 280 281 281 280 280 279 278 278 279 279 279 280 280 280 278 276 275 275 276
265 264 265 267 268 270 271 272 273 274 274 277 274 273 274 273 274 274 275 276 278 278 278 278 279 279 279 279 278 278 278 278 278 278 278 279 278 278 277 276 276 275 275
265 265 265 266 267 269 270 271 272 273 273 275 275 275 275 274 274 274 276 276 278 279 279 278 278 277 278 278 278 277 278 277 277 277 278 277 277 276 276 276 277 276 275
267 266 266 266 266 267 269 270 272 273 272 272 274 276 275 275 276 275 277 276 277 278 279 278 278 277 276 277 278 278 278 278 278 276 277 278 278 277 277 277 277 277 276
269 269 268 267 266 268 269 271 272 272 272 272 274 275 276 276 277 277 277 277 278 278 277 276 276 276 276 276 277 277 278 279 278 275 276 276 277 277 276 276 276 276 277
271 271 270 269 269 269 269 270 271 272 272 274 275 276 278 279 277 276 277 278 279 277 277 276 276 276 276 277 277 276 275 277 277 276 276 275 275 276 277 276 275 276 275
272 272 270 270 270 271 270 269 271 272 273 274 276 277 279 280 278 277 277 278 278 278 277 276 277 277 277 276 276 276 276 276 275 274 274 275 275 275 275 276 275 274 274
271 272 271 270 271 272 271 270 272 273 274 276 277 278 279 279 279 278 277 278 278 277 275 275 275 276 275 275 275 275 275 276 274 273 273 273 273 272 273 273 273 272 272
Height
5892 5894 5895 5896 5897 5898 5899 5900 5901 5902 5903 5904 5905 5905 5906 5907 5907 5908 5908 5908 5908 5908 5908 5908 5908 5908 5909 5909 5908 5908 5908 5908 5908 5908 5908 5908 5908 5908 5908 5908 5908 5908 5908
5893 5894 5895 5897 5897 5898 5899 5900 5901 5902 5903 5903 5904 5905 5906 5906 5907 5907 5907 5907 5907 5907 5907 5907 5907 5907 5907 5907 5907 5907 5907 5907 5907 5906 5906 5906 5906 5906 5906 5906 5906 5906 5906
5893 5894 5895 5896 5897 5898 5899 5900 5901 5901 5902 5903 5904 5905 5905 5906 5906 5906 5906 5906 5906 5905 5906 5906 5906 5905 5905 5905 5905 5905 5905 5905 5905 5905 5905 5905 5905 5904 5904 5904 5905 5905 5904
5893 5894 5895 5896 5897 5898 5899 5900 5900 5901 5902 5903 5903 5904 5905 5905 5905 5905 5905 5905 5905 5905 5904 5904 5905 5904 5904 5904 5904 5903 5903 5903 5903 5903 5903 5903 5903 5902 5902 5902 5902 5902 5902
5893 5894 5895 5896 5897 5898 5899 5900 5900 5901 5901 5902 5902 5903 5904 5904 5904 5904 5904 5904 5904 5904 5903 5903 5903 5903 5903 5902 5902 5902 5902 5901 5901 5901 5901 5900 5900 5900 5900 5900 5900 5900 5900
5893 5894 5895 5896 5897 5898 5898 5899 5899 5900 5900 5901 5901 5902 5903 5903 5903 5903 5902 5902 5902 5902 5902 5901 5901 5901 5901 5900 5900 5899 5899 5899 5899 5899 5898 5898 5898 5898 5898 5897 5897 5897 5897
5894 5895 5896 5896 5897 5897 5898 5898 5898 5899 5899 5900 5901 5901 5901 5901 5901 5901 5901 5901 5900 5900 5900 5899 5899 5899 5898 5898 5898 5897 5897 5897 5897 5896 5896 5895 5895 5895 5895 5895 5894 5894 5894
5893 5894 5895 5896 5896 5897 5897 5897 5897 5898 5898 5899 5899 5899 5900 5900 5900 5899 5899 5899 5898 5898 5898 5897 5897 5896 5896 5895 5895 5895 5894 5894 5894 5893 5893 5893 5892 5892 5892 5891 5891 5891 5891
5893 5893 5894 5895 5895 5895 5896 5896 5896 5897 5897 5897 5897 5897 5898 5898 5898 5898 5897 5897 5896 5896 5895 5895 5894 5894 5893 5893 5892 5892 5891 5891 5891 5890 5890 5890 5889 5889 5889 5888 5888 5888 5887
5892 5892 5893 5893 5893 5894 5894 5895 5895 5895 5895 5895 5895 5895 5895 5895 5895 5895 5895 5894 5894 5893 5893 5893 5892 5891 5891 5890 5889 5889 5888 5888 5888 5887 5887 5887 5886 5886 5885 5885 5884 5884 5883
5891 5891 5891 5891 5892 5892 5892 5893 5893 5893 5893 5893 5893 5893 5892 5892 5892 5892 5892 5891 5891 5890 5890 5889 5889 5889 5888 5887 5887 5886 5885 5885 5884 5883 5883 5883 5882 5882 5881 5881 5880 5879 5879
5889 5889 5889 5889 5889 5890 5890 5890 5890 5891 5891 5890 5890 5890 5890 5890 5890 5889 5889 5888 5888 5887 5886 5886 5885 5885 5884 5884 5883 5883 5882 5881 5880 5879 5879 5879 5878 5878 5877 5876 5876 5875 5875
5887 5886 5886 5886 5887 5887 5887 5887 5887 5887 5887 5887 5887 5886 5886 5886 5886 5886 5885 5885 5884 5883 5883 5882 5881 5881 5880 5880 5879 5879 5878 5877 5876 5875 5875 5874 5874 5873 5873 5872 5872 5871 5870
5884 5883 5883 5883 5883 5884 5884 5884 5884 5884 5884 5883 5883 5882 5882 5882 5882 5881 5881 5881 5880 5880 5879 5878 5877 5876 5876 5875 5875 5874 5874 5873 5872 5871 5871 5870 5869 5869 5868 5868 5867 5866 5866
5880 5880 5879 5879 5879 5880 5880 5880 5879 5879 5879 5879 5879 5878 5878 5877 5877 5876 5876 5876 5876 5875 5875 5874 5873 5872 5871 5871 5870 5869 5869 5868 5868 5867 5866 5865 5864 5864 5863 5862 5862 5861 5861
5876 5876 5876 5875 5875 5875 5875 5875 5875 5874 5874 5874 5873 5873 5873 5872 5872 5871 5871 5870 5870 5870 5870 5869 5868 5867 5867 5866 5865 5864 5863 5863 5862 5862 5861 5860 5859 5858 5858 5857 5856 5855 5855
5872 5871 5871 5871 5871 5870 5870 5870 5870 5869 5868 5868 5868 5867 5867 5867 5866 5866 5865 5865 5864 5864 5864 5863 5862 5862 5861 5860 5859 5858 5857 5857 5856 5856 5855 5854 5853 5852 5851 5851 5850 5850 5849
5867 5867 5866 5866 5866 5865 5865 5865 5864 5864 5863 5862 5862 5861 5860 5860 5860 5860 5859 5859 5858 5858 5857 5857 5856 5855 5855 5854 5853 5852 5851 5850 5850 5849 5848 5848 5847 5846 5845 5844 5844 5843 5843
5861 5861 5861 5861 5861 5860 5860 5859 5859 5858 5857 5856 5855 5855 5854 5854 5854 5853 5853 5852 5852 5851 5851 5850 5849 5848 5848 5847 5846 5845 5844 5843 5843 5842 5841 5840 5840 5839 5838 5837 5837 5836 5835
5855 5855 5855 5855 5855 5854 5854 5853 5852 5852 5851 5850 5849 5848 5848 5848 5847 5846 5846 5845 5845 5844 5843 5842 5842 5841 5840 5839 5838 5837 5836 5836 5835 5834 5834 5833 5832 5831 5831 5830 5829 5828 5828
5849 5849 5848 5848 5848 5848 5847 5846 5846 5845 5844 5843 5842 5842 5841 5840 5840 5839 5839 5838 5837 5836 5835 5834 5833 5832 5831 5830 5829 5829 5828 5828 5827 5826 5825 5825 5824 5823 5822 5822 5821 5820 5820
5841 5841 5841 5840 5840 5840 5839 5839 5838 5837 5836 5835 5834 5834 5833 5833 5832 5831 5830 5829 5828 5827 5827 5826 5824 5824 5823 5821 5820 5819 5819 5819 5818 5818 5816 5816 5815 5814 5814 5813 5812 5811 5811
5833 5832 5832 5832 5832 5831 5831 5831 5830 5829 5828 5827 5826 5825 5824 5824 5823 5822 5821 5820 5819 5818 5817 5816 5815 5814 5813 5812 5811 5810 5809 5809 5808 5807 5807 5806 5805 5805 5804 5803 5803 5802 5801
5824 5823 5823 5823 5822 5822 5822 5821 5820 5820 5819 5818 5817 5816 5815 5814 5813 5812 5811 5810 5809 5807 5807 5805 5804 5804 5803 5802 5801 5800 5799 5798 5798 5797 5796 5796 5796 5795 5794 5793 5793 5792 5791
5815 5813 5813 5813 5813 5812 5812 5811 5811 5810 5809 5809 5807 5806 5805 5804 5802 5801 5800 5799 5798 5797 5795 5794 5793 5792 5792 5791 5790 5789 5788 5788 5787 5787 5786 5785 5785 5784 5783 5783 5782 5781 5781
5806 5805 5804 5804 5803 5802 5802 5802 5801 5800 5800 5799 5798 5796 5795 5793 5792 5790 5789 5788 5787 5785 5784 5783 5782 5781 5780 5779 5778 5778 5777 5776 5776 5776 5775 5774 5774 5773 5773 5772 5772 5771 5771